Location: Augirein
(42.9320°N, 0.9181°E)
Time: 19:58:52
(UTC+00:00)

Resurs 1-4 Rocket - Pass Details

Date: 20 June 2021
Orbit: 800 x 813 km, 98.6° (Epoch: 31 July)

Event Time Altitude Azimuth Distance (km) Brightness Sun altitude
Rises 01:14:41 0° 17° (NNE) 3,343 6.9 -21.3°
Reaches altitude 10° 01:17:04 10° 21° (NNE) 2,408 5.8 -21.2°
Maximum altitude 01:22:20 61° 101° (E) 923 2.4 -20.8°
Enters shadow 01:24:24 36° 166° (SSE) 1,268 2.7 -20.7°
